Location: *
(50.9167°S, 179.4000°W)
Time: 20:43:23
(UTC+00:00)

Cosmos 2228 - Pass Details

Date: 03 March 2024
Orbit: 577 x 607 km, 82.5° (Epoch: 16 April)

Event Time Altitude Azimuth Distance (km) Brightness Sun altitude
Rises 14:47:18 0° 189° (S) 2,849 7.0 -23.3°
Reaches altitude 10° 14:49:32 10° 185° (S) 1,943 6.1 -23.1°
Maximum altitude 14:53:48 64° 103° (ESE) 668 3.3 -22.6°
Enters shadow 14:55:35 33° 33° (NNE) 1,012 4.0 -22.4°
